Погода в Еланде

Россия / Алтайский край     53°11′22″N   85°43′09″E
темп.,
°C
ветер,
м/с
пор.,
м/с
влажн.,
%
обл.,
%
осадки,
мм/ч
давл.,
гПа
погр.,
м
14 мая, пт
пт1401:00+11зсз347580 0.8 101364
04:00+10юз117687 0.0 101310
07:00+11зсз117390 0.0 101578
10:00+16ссз235289 0.0 1015755
13:00+19ссз554277 0.0 10161883
16:00+18сз673989 0.0 10171872
19:00+17ссз674086 0.0 10191908
22:00+11ссв2457100 0.0 102376
15 мая, сб
сб1501:00+10ссз0056100 0.0 102410
04:00+10зюз1154100 0.0 102510
07:00+11ююз2355100 0.0 1025113
10:00+15зюз343754 0.0 1025963
13:00+19зюз443115 0.0 10241416
16:00+21зюз4532100 0.0 10221663
19:00+21зюз46365 0.0 10211262
22:00+15ююз45525 0.0 102070
16 мая, вс
вс1601:00+13ююз375927 0.0 1020108
04:00+14ююз41054100 0.0 1019207
07:00+14ююз51256100 0.0 1018318
10:00+19юз7104214 0.0 1017695
13:00+23зюз793815 0.2 10151472
16:00+26зюз7103596 0.0 10132623
19:00+21юз59555 0.4 1010239
22:00+17ююз61362100 0.8 1010207
17 мая, пн
пн1701:00+16сз4876100 2.3 1011217
04:00+15з61288100 2.2 1011569
07:00+15з469187 3.6 1012497
10:00+15сз4687100 0.8 1013533
13:00+17сз446795 0.8 1015982
16:00+19сз455695 0.1 10151512
19:00+19з4556100 0.1 1015735
22:00+14зсз35735 0.0 101691
18 мая, вт
вт1801:00+11зюз2280100 0.0 101620
04:00+12ююз3780100 0.0 1014139
07:00+13юз51380100 0.0 1012383
10:00+19зюз8145899 0.4 1010927
13:00+21з6115695 0.7 10081131
16:00+25з8124268 0.0 10072771
19:00+22сз485519 1.6 1006607
22:00+17всв117499 0.0 100711